Time,TemperatureF,DewpointF,PressureIn,WindDirection,WindDirectionDegrees,WindSpeedMPH,WindSpeedGustMPH,Humidity,HourlyPrecipIn,Conditions,Clouds,dailyrainin,SoftwareType,DateUTC
2017-04-27 00:14:00,67.2,61.0,29.80,SSE,167,0.0,0.0,81,0.00,,,0.00,weatherlink.com 1.10,2017-04-27 04:14:00,
2017-04-27 00:29:00,67.2,62.0,29.80,SE,144,0.0,0.0,82,0.00,,,0.00,weatherlink.com 1.10,2017-04-27 04:29:00,
2017-04-27 00:44:00,66.8,62.0,29.80,SE,145,0.0,0.0,83,0.00,,,0.00,weatherlink.com 1.10,2017-04-27 04:44:00,
2017-04-27 00:59:00,66.7,62.0,29.80,South,174,0.0,0.0,84,0.00,,,0.00,weatherlink.com 1.10,2017-04-27 04:59:00,
2017-04-27 01:14:00,66.7,62.0,29.80,SE,143,0.0,0.0,85,0.00,,,0.00,weatherlink.com 1.10,2017-04-27 05:14:00,
2017-04-27 01:29:00,65.9,61.0,29.80,SE,144,0.0,0.0,85,0.00,,,0.00,weatherlink.com 1.10,2017-04-27 05:29:00,
2017-04-27 01:44:00,66.3,61.0,29.80,South,170,0.0,0.0,84,0.00,,,0.00,weatherlink.com 1.10,2017-04-27 05:44:00,
2017-04-27 01:59:00,66.8,62.0,29.80,South,184,0.0,0.0,85,0.00,,,0.00,weatherlink.com 1.10,2017-04-27 05:59:00,
2017-04-27 02:14:00,65.4,62.0,29.79,SSW,213,0.0,0.0,88,0.00,,,0.00,weatherlink.com 1.10,2017-04-27 06:14:00,
2017-04-27 02:29:00,64.8,62.0,29.79,South,184,0.0,8.0,90,0.00,,,0.00,weatherlink.com 1.10,2017-04-27 06:29:00,
2017-04-27 02:44:00,64.5,62.0,29.79,SSW,204,0.0,0.0,91,0.00,,,0.00,weatherlink.com 1.10,2017-04-27 06:44:00,
2017-04-27 02:59:00,64.9,62.0,29.78,South,184,0.0,0.0,91,0.00,,,0.00,weatherlink.com 1.10,2017-04-27 06:59:00,
2017-04-27 03:14:00,66.3,62.0,29.78,SSW,206,0.0,0.0,86,0.00,,,0.00,weatherlink.com 1.10,2017-04-27 07:14:00,
2017-04-27 03:29:00,64.9,62.0,29.78,South,187,0.0,0.0,90,0.00,,,0.00,weatherlink.com 1.10,2017-04-27 07:29:00,
2017-04-27 03:44:00,64.5,62.0,29.78,SSW,202,0.0,1.0,92,0.00,,,0.00,weatherlink.com 1.10,2017-04-27 07:44:00,
2017-04-27 03:59:00,64.7,62.0,29.78,SW,219,0.0,5.0,92,0.00,,,0.00,weatherlink.com 1.10,2017-04-27 07:59:00,
2017-04-27 04:14:00,65.2,63.0,29.78,South,176,0.0,0.0,91,0.00,,,0.00,weatherlink.com 1.10,2017-04-27 08:14:00,
2017-04-27 04:29:00,65.6,63.0,29.78,SSW,196,0.0,5.0,90,0.00,,,0.00,weatherlink.com 1.10,2017-04-27 08:29:00,
2017-04-27 04:44:00,64.7,62.0,29.79,SSW,193,0.0,1.0,92,0.00,,,0.00,weatherlink.com 1.10,2017-04-27 08:44:00,
2017-04-27 04:59:00,64.5,62.0,29.79,SSW,199,0.0,10.0,92,0.00,,,0.00,weatherlink.com 1.10,2017-04-27 08:59:00,
2017-04-27 05:14:00,64.4,62.0,29.80,SW,225,0.0,6.0,92,0.00,,,0.00,weatherlink.com 1.10,2017-04-27 09:14:00,
2017-04-27 05:29:00,64.6,62.0,29.80,WSW,257,0.0,2.0,92,0.00,,,0.00,weatherlink.com 1.10,2017-04-27 09:29:00,
2017-04-27 05:44:00,64.3,62.0,29.80,SW,221,0.0,9.0,92,0.00,,,0.00,weatherlink.com 1.10,2017-04-27 09:44:00,
2017-04-27 05:59:00,64.0,62.0,29.81,SW,221,0.0,1.0,93,0.00,,,0.00,weatherlink.com 1.10,2017-04-27 09:59:00,
2017-04-27 06:14:00,64.0,62.0,29.81,SW,219,0.0,1.0,93,0.00,,,0.00,weatherlink.com 1.10,2017-04-27 10:14:00,
2017-04-27 06:30:00,63.8,62.0,29.81,SSW,201,0.0,5.0,93,0.00,,,0.00,weatherlink.com 1.10,2017-04-27 10:30:00,
2017-04-27 06:44:00,64.1,62.0,29.82,SSW,211,0.0,4.0,94,0.00,,,0.00,weatherlink.com 1.10,2017-04-27 10:44:00,
2017-04-27 06:59:00,64.7,62.0,29.82,SW,216,0.0,5.0,91,0.00,,,0.00,weatherlink.com 1.10,2017-04-27 10:59:00,
2017-04-27 07:15:00,64.8,62.0,29.83,SSW,200,0.0,0.0,91,0.00,,,0.00,weatherlink.com 1.10,2017-04-27 11:15:00,
2017-04-27 07:29:00,65.3,63.0,29.83,SSW,205,0.0,5.0,91,0.00,,,0.00,weatherlink.com 1.10,2017-04-27 11:29:00,
2017-04-27 07:44:00,65.8,63.0,29.83,SSE,167,0.0,11.0,89,0.00,,,0.00,weatherlink.com 1.10,2017-04-27 11:44:00,
2017-04-27 07:59:00,67.5,63.0,29.83,SE,140,0.0,10.0,86,0.00,,,0.00,weatherlink.com 1.10,2017-04-27 11:59:00,
2017-04-27 08:14:00,67.4,63.0,29.83,South,188,1.0,9.0,85,0.00,,,0.00,weatherlink.com 1.10,2017-04-27 12:14:00,
2017-04-27 08:29:00,67.6,63.0,29.84,SSW,200,5.0,12.0,84,0.00,,,0.00,weatherlink.com 1.10,2017-04-27 12:29:00,